Time,TemperatureF,DewpointF,PressureIn,WindDirection,WindDirectionDegrees,WindSpeedMPH,WindSpeedGustMPH,Humidity,HourlyPrecipIn,Conditions,Clouds,dailyrainin,SoftwareType,DateUTC
2013-02-28 00:04:00,29.2,24.0,30.12,NNE,23,1.8,2.2,81,0.00,,,0.00,WUHU216HW,2013-02-28 06:04:00,
2013-02-28 00:09:00,29.2,24.0,30.12,NNE,23,1.8,1.8,81,0.00,,,0.00,WUHU216HW,2013-02-28 06:09:00,
2013-02-28 00:30:00,29.3,23.7,30.13,North,0,1.8,1.8,79,0.00,,,0.00,WUHU216HW,2013-02-28 06:30:00,
2013-02-28 00:35:00,29.3,23.7,30.13,North,0,1.8,1.8,79,0.00,,,0.00,WUHU216HW,2013-02-28 06:35:00,
2013-02-28 00:59:00,29.3,23.9,30.13,NNE,23,3.4,3.4,80,0.00,,,0.00,WUHU216HW,2013-02-28 06:59:00,
2013-02-28 01:04:00,29.3,23.9,30.13,NNE,23,3.4,3.4,80,0.00,,,0.00,WUHU216HW,2013-02-28 07:04:00,
2013-02-28 01:30:00,28.8,23.9,30.14,North,0,1.6,1.6,82,0.00,,,0.00,WUHU216HW,2013-02-28 07:30:00,
2013-02-28 01:35:00,28.8,23.9,30.14,North,0,1.6,1.6,82,0.00,,,0.00,WUHU216HW,2013-02-28 07:35:00,
2013-02-28 01:59:00,28.6,24.1,30.14,NW,315,3.4,3.4,83,0.00,,,0.00,WUHU216HW,2013-02-28 07:59:00,
2013-02-28 02:04:00,28.6,24.1,30.14,NW,315,3.4,3.4,83,0.00,,,0.00,WUHU216HW,2013-02-28 08:04:00,
2013-02-28 02:09:00,28.6,24.1,30.14,NW,315,3.4,3.4,83,0.00,,,0.00,WUHU216HW,2013-02-28 08:09:00,
2013-02-28 02:30:00,28.4,24.2,30.14,NNW,338,3.4,3.4,84,0.00,,,0.00,WUHU216HW,2013-02-28 08:30:00,
2013-02-28 02:35:00,28.4,24.2,30.14,NNW,338,3.4,3.4,84,0.00,,,0.00,WUHU216HW,2013-02-28 08:35:00,
2013-02-28 02:59:00,28.1,23.9,30.14,NE,45,4.7,4.7,84,0.00,,,0.00,WUHU216HW,2013-02-28 08:59:00,
2013-02-28 03:04:00,28.1,23.9,30.14,NE,45,4.7,4.7,84,0.00,,,0.00,WUHU216HW,2013-02-28 09:04:00,
2013-02-28 03:30:00,27.7,23.5,30.15,North,0,2.5,2.5,84,0.00,,,0.00,WUHU216HW,2013-02-28 09:30:00,
2013-02-28 03:35:00,27.7,23.5,30.15,North,0,2.5,2.5,84,0.00,,,0.00,WUHU216HW,2013-02-28 09:35:00,
2013-02-28 04:00:00,27.5,23.3,30.15,North,0,1.6,1.6,84,0.00,,,0.00,WUHU216HW,2013-02-28 10:00:00,
2013-02-28 04:04:00,27.5,23.3,30.15,North,0,1.6,1.6,84,0.00,,,0.00,WUHU216HW,2013-02-28 10:04:00,
2013-02-28 04:30:00,27.5,23.3,30.16,NNE,23,4.5,4.5,84,0.00,,,0.00,WUHU216HW,2013-02-28 10:30:00,
2013-02-28 04:35:00,27.5,23.3,30.16,NNE,23,4.5,4.5,84,0.00,,,0.00,WUHU216HW,2013-02-28 10:35:00,
2013-02-28 05:00:00,27.2,23.0,30.17,North,0,4.3,4.3,84,0.00,,,0.00,WUHU216HW,2013-02-28 11:00:00,
2013-02-28 05:05:00,27.2,23.0,30.17,North,0,4.3,4.3,84,0.00,,,0.00,WUHU216HW,2013-02-28 11:05:00,
2013-02-28 05:30:00,27.0,22.8,30.18,North,0,2.0,2.0,84,0.00,,,0.00,WUHU216HW,2013-02-28 11:30:00,
2013-02-28 05:35:00,27.0,22.8,30.18,North,0,2.0,2.0,84,0.00,,,0.00,WUHU216HW,2013-02-28 11:35:00,
2013-02-28 06:00:00,26.8,22.3,30.19,North,0,1.3,1.3,83,0.00,,,0.00,WUHU216HW,2013-02-28 12:00:00,
2013-02-28 06:05:00,26.8,22.3,30.19,North,0,1.3,1.3,83,0.00,,,0.00,WUHU216HW,2013-02-28 12:05:00,
2013-02-28 06:30:00,26.5,22.0,30.20,NNE,23,3.1,3.1,83,0.00,,,0.00,WUHU216HW,2013-02-28 12:30:00,
2013-02-28 06:35:00,26.5,22.0,30.20,NNE,23,3.1,3.1,83,0.00,,,0.00,WUHU216HW,2013-02-28 12:35:00,
2013-02-28 06:59:00,26.3,21.3,30.22,NNW,338,5.6,5.6,81,0.00,,,0.00,WUHU216HW,2013-02-28 12:59:00,
2013-02-28 07:04:00,26.3,21.3,30.22,NNW,338,5.6,5.6,81,0.00,,,0.00,WUHU216HW,2013-02-28 13:04:00,
2013-02-28 07:30:00,25.9,21.2,30.22,NNE,23,2.9,2.9,82,0.00,,,0.00,WUHU216HW,2013-02-28 13:30:00,
2013-02-28 07:35:00,25.9,21.2,30.22,NNE,23,2.9,2.9,82,0.00,,,0.00,WUHU216HW,2013-02-28 13:35:00,
2013-02-28 07:59:00,25.7,21.0,30.24,NNE,23,1.1,1.1,82,0.00,,,0.00,WUHU216HW,2013-02-28 13:59:00,
2013-02-28 08:04:00,25.7,21.0,30.24,NNE,23,1.1,1.1,82,0.00,,,0.00,WUHU216HW,2013-02-28 14:04:00,
2013-02-28 08:30:00,25.9,20.9,30.24,North,0,1.1,1.1,81,0.00,,,0.00,WUHU216HW,2013-02-28 14:30:00,
2013-02-28 08:35:00,25.9,20.9,30.24,North,0,1.1,1.1,81,0.00,,,0.00,WUHU216HW,2013-02-28 14:35:00,
2013-02-28 09:00:00,26.3,20.6,30.25,NNW,338,5.1,5.1,79,0.00,,,0.00,WUHU216HW,2013-02-28 15:00:00,
2013-02-28 09:05:00,26.3,20.6,30.25,North,0,5.4,5.4,79,0.00,,,0.00,WUHU216HW,2013-02-28 15:05:00,
2013-02-28 09:10:00,26.3,20.6,30.25,North,0,5.4,5.4,79,0.00,,,0.00,WUHU216HW,2013-02-28 15:10:00,
2013-02-28 09:30:00,26.5,20.8,30.26,North,0,2.9,2.9,79,0.00,,,0.00,WUHU216HW,2013-02-28 15:30:00,
2013-02-28 09:35:00,26.5,20.8,30.26,North,0,2.9,2.9,79,0.00,,,0.00,WUHU216HW,2013-02-28 15:35:00,
2013-02-28 09:59:00,26.6,20.6,30.27,NE,45,3.1,3.1,78,0.00,,,0.00,WUHU216HW,2013-02-28 15:59:00,
2013-02-28 10:04:00,26.6,20.6,30.27,NE,45,3.1,3.1,78,0.00,,,0.00,WUHU216HW,2013-02-28 16:04:00,
2013-02-28 10:09:00,26.6,20.6,30.27,NE,45,3.1,3.1,78,0.00,,,0.00,WUHU216HW,2013-02-28 16:09:00,
2013-02-28 10:30:00,27.7,21.1,30.27,NE,45,1.8,1.8,76,0.00,,,0.00,WUHU216HW,2013-02-28 16:30:00,
2013-02-28 10:35:00,27.7,21.1,30.27,NE,45,1.8,1.8,76,0.00,,,0.00,WUHU216HW,2013-02-28 16:35:00,
2013-02-28 10:59:00,27.7,20.8,30.27,NNW,338,3.4,3.4,75,0.00,,,0.00,WUHU216HW,2013-02-28 16:59:00,
2013-02-28 11:04:00,27.7,20.8,30.27,NNE,23,2.5,3.4,75,0.00,,,0.00,WUHU216HW,2013-02-28 17:04:00,
2013-02-28 11:09:00,27.7,20.8,30.27,NNE,23,2.5,2.5,75,0.00,,,0.00,WUHU216HW,2013-02-28 17:09:00,
2013-02-28 11:30:00,28.6,20.2,30.28,North,0,4.9,4.9,70,0.00,,,0.00,WUHU216HW,2013-02-28 17:30:00,
2013-02-28 11:35:00,28.6,20.2,30.28,North,0,4.9,4.9,70,0.00,,,0.00,WUHU216HW,2013-02-28 17:35:00,
2013-02-28 11:59:00,28.6,19.5,30.29,NE,45,3.6,3.6,68,0.00,,,0.00,WUHU216HW,2013-02-28 17:59:00,
2013-02-28 12:04:00,28.6,19.5,30.29,NE,45,3.6,3.6,68,0.00,,,0.00,WUHU216HW,2013-02-28 18:04:00,
2013-02-28 12:09:00,28.6,19.5,30.29,NE,45,3.6,3.6,68,0.00,,,0.00,WUHU216HW,2013-02-28 18:09:00,
2013-02-28 12:30:00,28.4,18.9,30.29,NNE,23,4.7,4.7,67,0.00,,,0.00,WUHU216HW,2013-02-28 18:30:00,
2013-02-28 12:35:00,28.4,18.9,30.29,NNE,23,4.7,4.7,67,0.00,,,0.00,WUHU216HW,2013-02-28 18:35:00,
2013-02-28 12:59:00,29.3,19.4,30.29,NNE,23,3.4,3.4,66,0.00,,,0.00,WUHU216HW,2013-02-28 18:59:00,
2013-02-28 13:05:00,29.3,19.4,30.29,NNE,23,3.4,3.4,66,0.00,,,0.00,WUHU216HW,2013-02-28 19:05:00,
2013-02-28 13:10:00,29.3,19.4,30.29,NNE,23,3.4,3.4,66,0.00,,,0.00,WUHU216HW,2013-02-28 19:10:00,
2013-02-28 13:30:00,29.2,17.7,30.30,NE,45,6.3,6.3,62,0.00,,,0.00,WUHU216HW,2013-02-28 19:30:00,
2013-02-28 13:35:00,29.2,17.7,30.30,NE,45,6.3,6.3,62,0.00,,,0.00,WUHU216HW,2013-02-28 19:35:00,
2013-02-28 13:59:00,29.5,19.5,30.30,NNW,338,2.5,2.5,66,0.00,,,0.00,WUHU216HW,2013-02-28 19:59:00,
2013-02-28 14:04:00,29.5,19.5,30.30,NNW,338,2.5,2.5,66,0.00,,,0.00,WUHU216HW,2013-02-28 20:04:00,
2013-02-28 14:30:00,28.4,18.9,30.30,NNE,23,2.5,2.5,67,0.00,,,0.00,WUHU216HW,2013-02-28 20:30:00,
2013-02-28 14:35:00,28.4,18.9,30.30,NNE,23,2.5,2.5,67,0.00,,,0.00,WUHU216HW,2013-02-28 20:35:00,
2013-02-28 14:59:00,28.6,17.7,30.30,NE,45,4.7,4.7,63,0.00,,,0.00,WUHU216HW,2013-02-28 20:59:00,
2013-02-28 15:04:00,28.6,17.7,30.30,NE,45,4.7,4.7,63,0.00,,,0.00,WUHU216HW,2013-02-28 21:04:00,
2013-02-28 15:30:00,28.4,18.5,30.30,North,0,2.0,2.0,66,0.00,,,0.00,WUHU216HW,2013-02-28 21:30:00,
2013-02-28 15:35:00,28.4,18.5,30.30,North,0,2.0,2.0,66,0.00,,,0.00,WUHU216HW,2013-02-28 21:35:00,
2013-02-28 15:59:00,27.5,17.6,30.32,North,0,2.7,2.7,66,0.00,,,0.00,WUHU216HW,2013-02-28 21:59:00,
2013-02-28 16:04:00,27.5,17.6,30.32,North,0,2.7,2.7,66,0.00,,,0.00,WUHU216HW,2013-02-28 22:04:00,
2013-02-28 16:30:00,27.0,17.8,30.33,North,0,2.5,2.5,68,0.00,,,0.00,WUHU216HW,2013-02-28 22:30:00,
2013-02-28 16:35:00,27.0,17.8,30.33,North,0,2.5,2.5,68,0.00,,,0.00,WUHU216HW,2013-02-28 22:35:00,
2013-02-28 17:00:00,26.1,17.9,30.34,North,0,2.0,2.0,71,0.00,,,0.00,WUHU216HW,2013-02-28 23:00:00,
2013-02-28 17:05:00,26.1,17.9,30.34,North,0,2.0,2.0,71,0.00,,,0.00,WUHU216HW,2013-02-28 23:05:00,
2013-02-28 17:30:00,24.7,16.8,30.35,NNE,23,1.3,1.3,72,0.00,,,0.00,WUHU216HW,2013-02-28 23:30:00,
2013-02-28 17:35:00,24.7,16.8,30.35,NNE,23,1.3,1.3,72,0.00,,,0.00,WUHU216HW,2013-02-28 23:35:00,
2013-02-28 18:00:00,23.6,15.8,30.36,North,0,2.7,2.7,72,0.00,,,0.00,WUHU216HW,2013-03-01 00:00:00,
2013-02-28 18:05:00,23.6,15.8,30.36,North,0,2.7,2.7,72,0.00,,,0.00,WUHU216HW,2013-03-01 00:05:00,
2013-02-28 18:30:00,22.9,15.5,30.37,NNE,23,1.1,1.1,73,0.00,,,0.00,WUHU216HW,2013-03-01 00:30:00,
2013-02-28 18:35:00,22.9,15.5,30.37,NNE,23,1.1,1.1,73,0.00,,,0.00,WUHU216HW,2013-03-01 00:35:00,
2013-02-28 18:59:00,22.3,15.3,30.37,North,0,3.4,3.4,74,0.00,,,0.00,WUHU216HW,2013-03-01 00:59:00,
2013-02-28 19:04:00,22.3,15.3,30.37,North,0,3.4,3.4,74,0.00,,,0.00,WUHU216HW,2013-03-01 01:04:00,
2013-02-28 19:30:00,22.0,15.2,30.38,NNE,23,1.1,1.1,75,0.00,,,0.00,WUHU216HW,2013-03-01 01:30:00,
2013-02-28 19:35:00,22.0,15.2,30.38,NNE,23,1.1,1.1,75,0.00,,,0.00,WUHU216HW,2013-03-01 01:35:00,
2013-02-28 19:59:00,21.2,13.9,30.38,NE,45,4.0,4.0,73,0.00,,,0.00,WUHU216HW,2013-03-01 01:59:00,
2013-02-28 20:04:00,21.2,13.9,30.38,NE,45,4.0,4.0,73,0.00,,,0.00,WUHU216HW,2013-03-01 02:04:00,
2013-02-28 20:30:00,20.9,13.9,30.40,North,0,1.8,1.8,74,0.00,,,0.00,WUHU216HW,2013-03-01 02:30:00,
2013-02-28 20:35:00,20.9,13.9,30.40,North,0,1.8,1.8,74,0.00,,,0.00,WUHU216HW,2013-03-01 02:35:00,
2013-02-28 20:59:00,20.7,14.0,30.40,NE,45,2.9,2.9,75,0.00,,,0.00,WUHU216HW,2013-03-01 02:59:00,
2013-02-28 21:04:00,20.7,14.0,30.40,NE,45,2.9,2.9,75,0.00,,,0.00,WUHU216HW,2013-03-01 03:04:00,
2013-02-28 21:09:00,20.7,14.0,30.40,NE,45,2.9,2.9,75,0.00,,,0.00,WUHU216HW,2013-03-01 03:09:00,
2013-02-28 21:30:00,20.5,14.0,30.40,ENE,68,2.7,2.7,76,0.00,,,0.00,WUHU216HW,2013-03-01 03:30:00,
2013-02-28 21:35:00,20.5,14.0,30.40,ENE,68,2.7,2.7,76,0.00,,,0.00,WUHU216HW,2013-03-01 03:35:00,
2013-02-28 21:59:00,20.3,13.9,30.40,North,0,3.4,3.4,76,0.00,,,0.00,WUHU216HW,2013-03-01 03:59:00,
2013-02-28 22:04:00,20.3,13.9,30.40,ENE,68,1.8,3.4,76,0.00,,,0.00,WUHU216HW,2013-03-01 04:04:00,
2013-02-28 22:09:00,20.3,13.9,30.40,ENE,68,1.8,1.8,76,0.00,,,0.00,WUHU216HW,2013-03-01 04:09:00,
2013-02-28 22:30:00,20.3,13.9,30.40,North,0,4.7,4.7,76,0.00,,,0.00,WUHU216HW,2013-03-01 04:30:00,
2013-02-28 22:35:00,20.3,13.9,30.40,North,0,4.7,4.7,76,0.00,,,0.00,WUHU216HW,2013-03-01 04:35:00,
2013-02-28 22:59:00,20.5,14.0,30.40,NE,45,2.9,2.9,76,0.00,,,0.00,WUHU216HW,2013-03-01 04:59:00,
2013-02-28 23:00:00,20.5,14.0,30.40,NE,45,2.9,2.9,76,0.00,,,0.00,WUHU216HW,2013-03-01 05:00:00,
2013-02-28 23:05:00,20.5,14.0,30.40,NE,45,2.9,2.9,76,0.00,,,0.00,WUHU216HW,2013-03-01 05:05:00,
2013-02-28 23:06:00,20.5,14.0,30.40,NE,45,2.9,2.9,76,0.00,,,0.00,WUHU216HW,2013-03-01 05:06:00,
2013-02-28 23:30:00,20.7,14.2,30.40,North,0,1.8,1.8,76,0.00,,,0.00,WUHU216HW,2013-03-01 05:30:00,
2013-02-28 23:35:00,20.7,14.2,30.40,North,0,1.8,1.8,76,0.00,,,0.00,WUHU216HW,2013-03-01 05:35:00,
2013-02-28 23:59:00,20.5,13.8,30.40,North,0,3.4,3.4,75,0.00,,,0.00,WUHU216HW,2013-03-01 05:59:00,